Location: Vale
(35.4830°N, 81.3830°W)
Time: 02:07:48
(UTC-05:00)

SR - All Passes

Search period start: 01 February 2015 00:00
Search period end: 11 February 2015 00:00
Orbit: 582 x 880 km, 66.7° (Epoch: 31 January)

Date Brightness Start Highest point End Pass type
(mag) Time Alt. Az. Time Alt. Az. Time Alt. Az.
01 Feb - 12:40:23 10° S 12:45:42 45° ESE 12:50:44 10° NE daylight
01 Feb - 14:23:37 10° WSW 14:28:03 24° NW 14:32:08 10° N daylight
01 Feb - 21:26:42 10° NNE 21:28:49 14° NE 21:31:05 10° E night (unlit)
01 Feb - 23:07:09 10° NW 23:11:21 52° WSW 23:15:27 10° S night (unlit)
02 Feb - 11:53:03 10° SSE 11:57:11 22° ESE 12:01:18 10° ENE daylight
02 Feb - 13:33:49 10° SW 13:39:10 45° WNW 13:44:08 10° NNE daylight
02 Feb - 22:18:27 10° NNW 22:22:46 63° ENE 22:26:57 10° SE night (unlit)
03 Feb - 12:44:49 10° SSW 12:50:28 89° W 12:55:42 10° NNE daylight
03 Feb - 14:30:55 10° WNW 14:33:18 13° NW 14:35:22 10° NNW daylight
03 Feb - 21:30:16 10° N 21:33:59 27° NE 21:37:39 10° ESE night (unlit)
03 Feb - 23:12:36 10° WNW 23:15:57 22° WSW 23:19:08 10° SSW night (unlit)
04 Feb - 11:56:35 10° S 12:01:52 44° ESE 12:06:52 10° NE daylight
04 Feb - 13:39:48 10° WSW 13:44:12 23° NW 13:48:15 10° N daylight
04 Feb - 20:42:52 10° NNE 20:44:56 13° NE 20:47:11 10° E night (unlit)
04 Feb - 22:23:17 10° NW 22:27:29 52° WSW 22:31:34 10° S night (unlit)
05 Feb - 11:09:15 10° SSE 11:13:21 22° ESE 11:17:25 10° ENE daylight
05 Feb - 12:50:01 10° SW 12:55:19 45° WNW 13:00:15 10° NNE daylight
05 Feb - 21:34:35 10° NNW 21:38:53 63° ENE 21:43:04 10° SE night (unlit)
06 Feb - 12:01:01 10° SSW 12:06:38 90° NW 12:11:50 10° NNE daylight
06 Feb - 13:47:06 10° WNW 13:49:27 12° NW 13:51:28 10° NNW daylight
06 Feb - 20:46:24 10° N 20:50:06 27° NE 20:53:45 10° ESE visible
06 Feb - 22:28:44 10° WNW 22:32:04 22° WSW 22:35:15 10° SSW night (unlit)
07 Feb - 11:12:44 10° S 11:18:02 44° ESE 11:22:59 10° NE daylight
07 Feb - 12:55:58 10° WSW 13:00:21 23° NW 13:04:22 10° N daylight
07 Feb - 19:59:00 10° NNE 20:01:04 13° NE 20:03:16 10° E visible
07 Feb - 21:39:24 10° NW 21:43:36 52° WSW 21:47:41 10° S night (unlit)
08 Feb - 10:25:25 10° SSE 10:29:29 22° ESE 10:33:31 10° ENE daylight
08 Feb - 12:06:11 10° SW 12:11:29 45° WNW 12:16:22 10° NNE daylight
08 Feb - 20:50:43 10° NNW 20:55:00 62° ENE 20:59:11 10° SE visible
09 Feb - 11:17:10 10° SSW 11:22:45 90° WSW 11:27:56 10° NNE daylight
09 Feb - 13:03:18 10° WNW 13:05:34 12° NW 13:07:32 10° NNW daylight
09 Feb - 20:02:31 10° N 20:06:12 27° NE 20:09:51 10° ESE visible
09 Feb - 21:44:50 10° WNW 21:48:10 22° WSW 21:51:22 10° SSW visible
10 Feb - 10:28:55 10° S 10:34:09 44° ESE 10:39:05 10° NE daylight
10 Feb - 12:12:08 10° WSW 12:16:28 23° NW 12:20:28 10° N daylight
10 Feb - 19:15:09 10° NNE 19:17:10 13° NE 19:19:21 10° E visible
10 Feb - 20:55:31 10° NW 20:59:41 53° WSW 21:03:47 10° S visible
